GW5369 Weather Reports


time (UTC)temp
F
wind
direction
speed
knots
gust
knots
rain 1hr
in
rain 24hr
in
rain mn
in
humidity
%
barometer
mb
20260506015004 68 176 0.9 2.6 0.00 0.00 0.00 84 1017.9
20260506014516 68 188 0.9 1.7 0.00 0.00 0.00 84 1017.9
20260506014004 68 184 0.9 2.6 0.00 0.00 0.00 84 1017.8
20260506013504 68 186 0.9 2.6 0.00 0.00 0.00 84 1017.9
20260506013013 68 202 0.9 2.6 0.00 0.00 0.00 84 1017.9
20260506012504 68 178 0.9 3.5 0.00 0.00 0.00 84 1017.8
20260506012006 68 185 0.9 3.5 0.00 0.00 0.00 83 1017.9
20260506011522 68 184 0.9 2.6 0.00 0.00 0.00 83 1017.8
20260506011008 68 181 0.9 2.6 0.00 0.00 0.00 83 1017.9
20260506010507 68 182 0.9 2.6 0.00 0.00 0.00 83 1017.9
20260506010027 68 180 0.9 2.6 0.00 0.00 0.00 83 1017.9
20260506005505 68 177 0.9 2.6 0.00 0.00 0.00 83 1017.9
20260506005008 68 196 0.9 3.5 0.00 0.00 0.00 82 1017.9
20260506004507 68 179 0.9 3.5 0.00 0.00 0.00 82 1017.9
20260506004004 68 213 0.9 3.5 0.00 0.00 0.00 81 1017.9
20260506003504 68 169 0.9 2.6 0.00 0.00 0.00 81 1017.9
20260506003015 68 175 0.9 4.3 0.00 0.00 0.00 80 1017.9
20260506002504 68 190 1.7 4.3 0.00 0.00 0.00 80 1017.9
20260506002007 68 178 0.9 3.5 0.00 0.00 0.00 80 1017.8
20260506001518 68 181 0.9 2.6 0.00 0.00 0.00 79 1017.7
20260506001005 69 176 0.9 2.6 0.00 0.00 0.00 79 1017.7
20260506000505 69 178 0.9 3.5 0.00 0.00 0.00 78 1017.8
20260506000022 69 178 0.9 3.5 0.00 0.00 0.00 78 1017.8
20260505235507 69 184 0.9 3.5 0.00 0.00 0.00 78 1017.8
20260505235007 69 182 0.9 3.5 0.00 0.00 0.00 79 1017.8
20260505234530 69 182 0.9 3.5 0.00 0.00 0.00 79 1017.8
20260505234009 69 169 0.9 3.5 0.00 0.00 0.00 79 1017.8
20260505233509 69 173 0.9 3.5 0.00 0.00 0.00 79 1017.8
20260505233009 70 183 0.9 3.5 0.00 0.00 0.00 78 1017.9
20260505232504 70 159 0.9 3.5 0.00 0.00 0.00 78 1017.8
20260505232005 70 182 0.9 5.2 0.00 0.00 0.00 77 1017.7
20260505231515 70 195 1.7 6.1 0.00 0.00 0.00 77 1017.9
20260505231006 70 177 0.9 6.1 0.00 0.00 0.00 77 1017.9
20260505230505 71 164 1.7 4.3 0.00 0.00 0.00 76 1018.0
20260505230043 71 177 0.9 3.5 0.00 0.00 0.00 76 1018.0
20260505225509 71 177 0.9 3.5 0.00 0.00 0.00 76 1018.1
20260505225009 71 205 1.7 3.5 0.00 0.00 0.00 75 1018.1
20260505224522 71 176 0.9 2.6 0.00 0.00 0.00 75 1017.9
20260505224011 71 172 0.9 2.6 0.00 0.00 0.00 75 1017.9
20260505223512 71 165 0.9 2.6 0.00 0.00 0.00 75 1017.9
20260505223025 71 137 0.9 2.6 0.00 0.00 0.00 75 1017.8
20260505222510 72 179 0.9 6.1 0.00 0.00 0.00 74 1017.9
20260505222013 72 149 0.9 6.1 0.00 0.00 0.00 74 1017.9
20260505221512 72 169 0.9 7.0 0.00 0.00 0.00 73 1018.0
20260505221010 72 150 0.9 7.0 0.00 0.00 0.00 74 1018.0
20260505220506 72 164 0.9 4.3 0.00 0.00 0.00 75 1018.0
20260505220019 72 151 0.9 4.3 0.00 0.00 0.00 74 1017.9
20260505215507 72 187 0.9 4.3 0.00 0.00 0.00 73 1017.9
20260505215007 72 161 0.9 4.3 0.00 0.00 0.00 72 1017.8
20260505214523 73 165 1.7 4.3 0.00 0.00 0.00 71 1017.8
20260505214012 73 186 0.9 3.5 0.00 0.00 0.00 71 1017.8
20260505213510 74 167 0.9 4.3 0.00 0.00 0.00 71 1017.8
20260505213028 74 163 1.7 4.3 0.00 0.00 0.00 71 1017.8
20260505212507 74 160 0.9 4.3 0.00 0.00 0.00 71 1017.8
20260505212011 74 188 2.6 4.3 0.00 0.00 0.00 71 1018.1
20260505211526 74 158 1.7 6.1 0.00 0.00 0.00 70 1018.2
20260505211009 74 188 1.7 6.1 0.00 0.00 0.00 69 1018.1
20260505210513 75 202 1.7 5.2 0.00 0.00 0.00 69 1018.2
20260505210028 74 227 1.7 7.0 0.00 0.00 0.00 70 1018.3
20260505205506 74 187 2.6 7.0 0.00 0.00 0.00 69 1018.2
20260505205009 74 209 1.7 7.0 0.00 0.00 0.00 69 1018.0
20260505204522 74 205 3.5 7.0 0.00 0.00 0.00 69 1018.0
20260505204006 75 166 2.6 7.8 0.00 0.00 0.00 69 1018.0
20260505203507 74 169 1.7 7.8 0.00 0.00 0.00 69 1018.0
20260505203023 74 198 3.5 7.8 0.00 0.00 0.00 69 1018.0
20260505202509 75 187 2.6 6.1 0.00 0.00 0.00 67 1017.9
20260505202012 75 205 0.9 6.1 0.00 0.00 0.00 68 1017.9
20260505201513 75 188 0.9 6.1 0.00 0.00 0.00 68 1017.8
20260505201004 75 213 2.6 6.1 0.00 0.00 0.00 68 1017.8
20260505200506 75 140 0.9 6.1 0.00 0.00 0.00 67 1017.8
20260505200013 75 129 1.7 6.1 0.00 0.00 0.00 68 1017.9
20260505195503 75 213 1.7 6.1 0.00 0.00 0.00 67 1018.1
20260505195005 75 219 2.6 7.0 0.00 0.00 0.00 66 1018.3
20260505194516 75 206 1.7 7.0 0.00 0.00 0.00 67 1018.4
20260505194011 75 195 2.6 5.2 0.00 0.00 0.00 67 1018.6
20260505193506 75 193 1.7 5.2 0.00 0.00 0.00 67 1018.6
20260505193024 75 213 1.7 5.2 0.00 0.00 0.00 68 1018.6
20260505192511 74 211 2.6 5.2 0.00 0.00 0.00 68 1018.7
20260505192003 74 173 1.7 5.2 0.00 0.00 0.00 68 1018.7
20260505191506 74 208 1.7 6.1 0.00 0.00 0.00 66 1018.6
20260505191003 75 169 0.9 7.0 0.00 0.00 0.00 66 1018.6
20260505190503 75 194 1.7 7.0 0.00 0.00 0.00 67 1018.6
20260505190012 76 119 0.9 6.1 0.00 0.00 0.00 66 1018.6
20260505185504 75 192 2.6 6.1 0.00 0.00 0.00 67 1018.6
20260505185005 76 192 0.9 7.0 0.00 0.00 0.00 68 1018.5
20260505184516 75 130 1.7 7.0 0.00 0.00 0.00 66 1018.4
20260505184005 75 162 1.7 6.1 0.00 0.00 0.00 67 1018.6
20260505183507 74 153 2.6 6.1 0.00 0.00 0.00 70 1018.6
20260505183026 75 198 2.6 6.1 0.00 0.00 0.00 65 1018.7
20260505182509 75 208 1.7 7.0 0.00 0.00 0.00 69 1018.8
20260505182012 74 162 2.6 7.0 0.00 0.00 0.00 68 1018.9
20260505181523 75 173 1.7 6.1 0.00 0.00 0.00 67 1018.9
20260505181009 75 213 1.7 6.1 0.00 0.00 0.00 68 1019.0
20260505180504 75 193 2.6 6.1 0.00 0.00 0.00 68 1018.9
20260505180019 74 190 1.7 6.1 0.00 0.00 0.00 67 1019.0
20260505175504 74 98 1.7 7.0 0.00 0.00 0.00 68 1019.0
20260505175003 75 209 3.5 7.0 0.00 0.00 0.00 66 1019.0
20260505174514 75 148 1.7 7.0 0.00 0.00 0.00 66 1019.0
20260505174006 75 140 1.7 5.2 0.00 0.00 0.00 71 1019.1
20260505173503 75 194 1.7 5.2 0.00 0.00 0.00 68 1019.0
20260505173015 75 136 1.7 5.2 0.00 0.00 0.00 70 1019.0
20260505172510 74 175 1.7 6.1 0.00 0.00 0.00 70 1019.1
20260505172014 74 188 1.7 6.1 0.00 0.00 0.00 72 1019.1
20260505171529 73 336 2.6 7.8 0.00 0.00 0.00 70 1019.1
20260505171011 74 246 0.9 7.8 0.00 0.00 0.00 71 1019.2
20260505170509 75 215 2.6 6.1 0.00 0.00 0.00 67 1019.2
20260505170026 75 165 1.7 5.2 0.00 0.00 0.00 67 1019.2
20260505165506 74 198 1.7 5.2 0.00 0.00 0.00 68 1019.2
20260505165014 74 199 1.7 6.1 0.00 0.00 0.00 68 1019.2
20260505164507 74 189 1.7 6.1 0.00 0.00 0.00 68 1019.3
20260505164003 74 245 1.7 7.0 0.00 0.00 0.00 71 1019.3
20260505163509 73 213 2.6 7.0 0.00 0.00 0.00 72 1019.3
20260505163012 74 177 3.5 7.0 0.00 0.00 0.00 70 1019.4
20260505162506 73 283 2.6 7.0 0.00 0.00 0.00 71 1019.4
20260505162007 73 190 1.7 6.1 0.00 0.00 0.00 70 1019.4
20260505161518 73 186 1.7 5.2 0.00 0.00 0.00 70 1019.4
20260505161006 74 186 2.6 5.2 0.00 0.00 0.00 69 1019.5
20260505160507 74 162 1.7 5.2 0.00 0.00 0.00 68 1019.6
20260505153014 72 192 2.6 6.1 0.00 0.00 0.00 69 1019.5
20260505152506 72 211 2.6 6.1 0.00 0.00 0.00 70 1019.5
20260505152008 73 213 1.7 7.0 0.00 0.00 0.00 71 1019.5
20260505151515 72 199 0.9 7.0 0.00 0.00 0.00 69 1019.5
20260505151004 73 183 1.7 5.2 0.00 0.00 0.00 69 1019.5
20260505150507 72 197 1.7 7.0 0.00 0.00 0.00 71 1019.5
20260505140501 72 190 1.7 5.2 0.00 0.00 0.00 72 1019.2
20260505125000 69 188 0.9 3.5 0.00 0.00 0.00 81 1019.0
20260505124506 69 205 0.9 4.3 0.00 0.00 0.00 82 1019.0
20260505124000 69 192 1.7 4.3 0.00 0.00 0.00 83 1018.9
20260505123503 68 192 0.9 3.5 0.00 0.00 0.00 83 1018.9
20260505123022 68 180 0.9 3.5 0.00 0.00 0.00 84 1018.8
20260505122503 68 177 0.9 4.3 0.00 0.00 0.00 84 1018.7
20260505122003 68 173 1.7 4.3 0.00 0.00 0.00 85 1018.7
20260505121507 67 194 1.7 4.3 0.00 0.00 0.00 87 1018.7
20260505121004 67 182 1.7 4.3 0.00 0.00 0.00 89 1018.8
20260505120504 67 192 0.9 2.6 0.00 0.00 0.00 90 1018.8
20260505120019 66 194 0.9 2.6 0.00 0.00 0.00 92 1018.8
20260505115503 66 196 0.9 2.6 0.00 0.00 0.00 93 1018.7
20260505115001 65 185 0.9 2.6 0.00 0.00 0.00 95 1018.7
20260505114503 63 188 0.0 0.9 0.00 0.00 0.00 95 1018.7
20260505114002 61 188 0.0 0.0 0.00 0.00 0.00 95 1018.6
20260505113503 60 188 0.0 0.0 0.00 0.00 0.00 95 1018.6
20260505113005 60 188 0.0 0.0 0.00 0.00 0.00 95 1018.4
20260505112504 59 188 0.0 0.9 0.00 0.00 0.00 95 1018.3
20260505112004 59 188 0.0 0.9 0.00 0.00 0.00 95 1018.3
20260505111516 59 188 0.0 0.9 0.00 0.00 0.00 95 1018.2
20260505111004 58 188 0.0 0.9 0.00 0.00 0.00 95 1018.1
20260505110504 58 188 0.0 0.9 0.00 0.00 0.00 95 1018.0
20260505102006 58 188 0.0 0.9 0.00 0.00 0.00 94 1017.6
20260505101512 58 188 0.0 0.9 0.00 0.00 0.00 94 1017.5
20260505101004 59 188 0.0 0.0 0.00 0.00 0.00 94 1017.5
20260505100504 59 188 0.0 0.9 0.00 0.00 0.00 94 1017.5
20260505100021 59 188 0.0 0.9 0.00 0.00 0.00 94 1017.4
20260505095502 59 188 0.0 0.9 0.00 0.00 0.00 94 1017.4
20260505095004 59 188 0.0 0.9 0.00 0.00 0.00 94 1017.5
20260505094513 59 188 0.0 0.9 0.00 0.00 0.00 94 1017.3
20260505094007 59 188 0.0 0.9 0.00 0.00 0.00 94 1017.4
20260505093504 60 188 0.0 0.9 0.00 0.00 0.00 94 1017.3
20260505093023 59 188 0.0 0.9 0.00 0.00 0.00 93 1017.3
20260505092505 59 188 0.0 0.9 0.00 0.00 0.00 93 1017.3
20260505092008 60 188 0.0 0.0 0.00 0.00 0.00 93 1017.2
20260505091502 60 188 0.0 0.0 0.00 0.00 0.00 93 1017.1
20260505091003 60 188 0.0 0.0 0.00 0.00 0.00 93 1017.1
20260505090502 60 188 0.0 0.0 0.00 0.00 0.00 92 1017.1
20260505090006 60 188 0.0 0.9 0.00 0.00 0.00 93 1017.0
20260505085502 60 188 0.0 0.9 0.00 0.00 0.00 92 1017.0
20260505085003 60 188 0.0 0.0 0.00 0.00 0.00 92 1016.9
20260505084512 60 188 0.0 0.0 0.00 0.00 0.00 91 1017.0
20260505084005 61 188 0.0 0.0 0.00 0.00 0.00 91 1016.9
20260505083504 61 188 0.0 0.0 0.00 0.00 0.00 90 1016.8
20260505083021 61 188 0.0 0.0 0.00 0.00 0.00 89 1016.8
20260505082505 62 188 0.0 0.0 0.00 0.00 0.00 88 1016.9
20260505082005 62 188 0.0 1.7 0.00 0.00 0.00 88 1016.9
20260505081524 63 188 0.0 1.7 0.00 0.00 0.00 86 1016.9
20260505081008 65 188 0.0 1.7 0.00 0.00 0.00 86 1016.9
20260505080509 65 192 0.0 2.6 0.00 0.00 0.00 86 1016.8
20260505080023 65 190 0.0 2.6 0.00 0.00 0.00 86 1016.7
20260505075501 65 175 0.0 1.7 0.00 0.00 0.00 86 1016.8
20260505075003 65 193 0.0 3.5 0.00 0.00 0.00 86 1016.7
20260505074510 65 177 0.9 3.5 0.00 0.00 0.00 86 1016.8
20260505074002 65 200 0.0 2.6 0.00 0.00 0.00 85 1016.8
20260505073507 65 190 0.9 2.6 0.00 0.00 0.00 85 1016.8
20260505073029 65 177 0.9 2.6 0.00 0.00 0.00 84 1016.8
20260505072507 65 209 0.9 3.5 0.00 0.00 0.00 84 1016.8
20260505072004 66 185 0.9 3.5 0.00 0.00 0.00 83 1016.9
20260505071518 66 203 0.9 3.5 0.00 0.00 0.00 83 1016.9
20260505071005 66 178 1.7 3.5 0.00 0.00 0.00 83 1016.9
20260505070507 66 193 1.7 3.5 0.00 0.00 0.00 82 1016.9
20260505070024 66 186 1.7 3.5 0.00 0.00 0.00 82 1016.9
20260505065507 66 182 1.7 3.5 0.00 0.00 0.00 83 1016.9
20260505065008 65 195 0.9 3.5 0.00 0.00 0.00 83 1016.9
20260505064528 65 179 0.9 3.5 0.00 0.00 0.00 82 1016.9
20260505064001 66 184 0.0 2.6 0.00 0.00 0.00 81 1016.9
20260505063504 66 186 0.9 3.5 0.00 0.00 0.00 81 1017.0
20260505063014 66 188 0.9 3.5 0.00 0.00 0.00 81 1017.1
20260505062505 66 183 0.9 3.5 0.00 0.00 0.00 81 1017.2
20260505062009 66 173 0.9 4.3 0.00 0.00 0.00 81 1017.2
20260505061523 66 196 0.9 4.3 0.00 0.00 0.00 81 1017.2
20260505061005 66 200 0.9 4.3 0.00 0.00 0.00 81 1017.3
20260505060508 66 184 0.9 3.5 0.00 0.00 0.00 81 1017.4
20260505060023 66 184 1.7 3.5 0.00 0.00 0.00 80 1017.5
20260505055509 66 189 0.9 4.3 0.00 0.00 0.00 80 1017.5
20260505055013 66 182 0.9 5.2 0.00 0.00 0.00 79 1017.5
20260505054526 66 188 1.7 5.2 0.00 0.00 0.00 79 1017.7
20260505054014 66 195 1.7 3.5 0.00 0.00 0.00 79 1017.7
20260505053510 66 176 1.7 4.3 0.00 0.00 0.00 78 1017.8
20260505053036 66 179 1.7 4.3 0.00 0.00 0.00 78 1017.8
20260505052510 66 194 1.7 4.3 0.00 0.00 0.00 78 1017.8
20260505052009 66 179 1.7 4.3 0.00 0.00 0.00 78 1017.9
20260505051524 66 187 1.7 4.3 0.00 0.00 0.00 78 1017.9
20260505051006 67 182 0.9 4.3 0.00 0.00 0.00 78 1018.0
20260505050504 67 188 1.7 4.3 0.00 0.00 0.00 78 1018.0
20260505041511 66 194 2.6 4.3 0.00 0.00 0.00 77 1018.0
20260505041005 67 184 1.7 4.3 0.00 0.00 0.00 76 1018.0
20260505040508 67 190 1.7 6.1 0.00 0.00 0.00 76 1018.0
20260505040014 67 167 2.6 6.1 0.00 0.00 0.00 76 1018.0
20260505035508 67 173 1.7 5.2 0.00 0.00 0.00 76 1018.0
20260505035004 67 180 2.6 5.2 0.00 0.00 0.00 76 1018.0
20260505034514 67 188 1.7 4.3 0.00 0.00 0.00 76 1017.9
20260505034006 67 192 2.6 5.2 0.00 0.00 0.00 76 1017.9
20260505033505 67 161 2.6 7.0 0.00 0.00 0.00 75 1017.9
20260505033014 67 182 2.6 7.0 0.00 0.00 0.00 75 1017.9
20260505032505 67 169 1.7 5.2 0.00 0.00 0.00 76 1018.0
20260505032005 67 122 1.7 5.2 0.00 0.00 0.00 76 1018.0
20260505031509 67 169 1.7 5.2 0.00 0.00 0.00 75 1018.0
20260505031006 67 209 2.6 5.2 0.00 0.00 0.00 74 1018.1
20260505030507 67 193 2.6 5.2 0.00 0.00 0.00 74 1018.0
20260505030014 67 197 2.6 5.2 0.00 0.00 0.00 74 1018.1
20260505025507 67 208 2.6 5.2 0.00 0.00 0.00 73 1018.1
20260505025004 67 196 2.6 6.1 0.00 0.00 0.00 73 1018.1
20260505024515 67 186 3.5 6.1 0.00 0.00 0.00 72 1018.1
20260505024003 67 205 2.6 7.0 0.00 0.00 0.00 73 1018.2
20260505023503 67 201 2.6 7.0 0.00 0.00 0.00 73 1018.2
20260505023022 67 186 2.6 5.2 0.00 0.00 0.00 72 1018.2
20260505022504 67 142 2.6 5.2 0.00 0.00 0.00 72 1018.2
20260505022005 67 178 2.6 5.2 0.00 0.00 0.00 72 1018.2
20260505021519 67 188 3.5 5.2 0.00 0.00 0.00 72 1018.2
20260505021005 67 164 2.6 6.1 0.00 0.00 0.00 72 1018.2
20260505020505 67 188 2.6 7.0 0.00 0.00 0.00 72 1018.2
20260505020012 67 188 2.6 7.0 0.00 0.00 0.00 72 1018.2
20260505015504 67 187 2.6 6.1 0.00 0.00 0.00 72 1018.2